O3B FM9

Last updated on Fri Dec 29 2023 00:03:04 GMT+0000 (Coordinated Universal Time)

1 40351U 14083D 23361.72005774 -.00000024 00000+0 00000+0 0 9991 2 40351 0.0456 10.9559 0002736 263.6606 85.3505 5.00115020164928
UTC large
Height (km)
Speed (km/s)
/
Latitude / Longitude
Inclination (degrees)
Orbital Period (minutes)
Azimuth
Elevation
Range (km)
Doppler Factor

Next 0 passes for location: London (51.5072 / 0.1276)

Sorry there are no passes over London.